Location: Santa Cristina
(46.5667°N, 11.7167°E)
Time: 06:00:38
(UTC+00:00)

Cosmos 1703 Rocket - Pass Details

Date: 21 April 2021
Orbit: 606 x 633 km, 82.5° (Epoch: 15 May)

Event Time Altitude Azimuth Distance (km) Brightness Sun altitude
Exits shadow 01:51:28 60° 258° (WSW) 699 3.5 -21.5°
Maximum altitude 01:51:46 62° 281° (W) 686 3.5 -21.5°
Drops below altitude 10° 01:56:05 10° 3° (N) 1,968 6.8 -21.0°
Sets 01:58:20 0° 7° (N) 2,878 7.8 -20.7°
